Regional Weather Roundup
Issued by NWS

Home | Current Version | Previous Version | Graphics & Text | Print | Product List | Glossary On
Versions: 1 2 3 4 5 6 7 8 9 10 11 12 13 14 15 16 17 18 19 20 21 22 23 24 25 26 27 28 29 30 31 32 33 34 35 36 37 38 39 40 41 42 43 44 45 46 47 48 49 50
000
ASUS43 KBIS 212310
RWRND

NORTH DAKOTA REGIONAL WEATHER ROUNDUP
NATIONAL WEATHER SERVICE BISMARCK ND
500 PM CST TUE FEB 21 2017

NOTE: "FAIR" INDICATES FEW OR NO CLOUDS BELOW 12,000 FEET WITH NO
SIGNIFICANT WEATHER AND/OR OBSTRUCTIONS TO VISIBILITY.


NDZ001>003-009>011-017-220000-
NORTHWEST NORTH DAKOTA

CITY           SKY/WX    TMP DP  RH WIND       PRES   REMARKS
WILLISTON      CLOUDY    45  32  60 W8        29.63S
MINOT          CLOUDY    45  36  70 SW7       29.63F
MINOT AFB      CLOUDY    38  34  85 W5        29.62S
$$

NDZ018>021-031>035-040>046-220000-
SOUTHWEST NORTH DAKOTA

CITY           SKY/WX    TMP DP  RH WIND       PRES   REMARKS
BISMARCK       PTSUNNY   49  37  63 E3        29.65F
DICKINSON      PTSUNNY   50  33  52 NE8       29.62F
GARRISON         N/A     42  37  82 NW9       29.64F
HETTINGER ARPT PTSUNNY   61  34  36 N10       29.63S
$$

NDZ004>008-012>016-024-026-027-054-220000-
NORTHEAST NORTH DAKOTA

CITY           SKY/WX    TMP DP  RH WIND       PRES   REMARKS
GRAND FORKS    CLOUDY    37  32  82 NW3       29.66F HAZE
GRND FRKS AFB  FOG       34  34  99 NW3       29.67R VSB 0
DEVILS LAKE    CLOUDY    37  32  82 SW7       29.66R
$$

NDZ022-023-025-028>030-036>039-047>053-220000-
SOUTHEAST NORTH DAKOTA

CITY           SKY/WX    TMP DP  RH WIND       PRES   REMARKS
FARGO          MOCLDY    46  40  79 SW5       29.65F
JAMESTOWN      CLOUDY    45  37  73 W5        29.65F
$$





USA.gov is the U.S. government's official web portal to all federal, state and local government web resources and services.